Regional Weather Roundup
Issued by NWS

Home | Current Version | Previous Version | Graphics & Text | Print | Product List | Glossary On
Versions: 1 2 3 4 5 6 7 8 9 10 11 12 13 14 15 16 17 18 19 20 21 22 23 24 25 26 27 28 29 30 31 32 33 34 35 36 37 38 39 40 41 42 43 44 45 46 47 48 49 50
000
ASUS43 KLMK 200010
RWRKY
KENTUCKY REGIONAL WEATHER ROUNDUP
NATIONAL WEATHER SERVICE LOUISVILLE KY
700 PM EST SUN NOV 19 2017

NOTE "FAIR" INDICATES FEW OR NO CLOUDS BELOW 12,000 FEET
WITH NO SIGNIFICANT WEATHER AND/OR OBSTRUCTIONS TO VISIBILITY.

KYZ001>023-026-027-061>063-070>075-200100-
WESTERN AND SOUTH CENTRAL KENTUCKY

CITY           SKY/WX    TMP DP  RH WIND       PRES   REMARKS
PADUCAH        CLEAR     38  20  48 CALM      30.22R
HENDERSON      CLEAR     34  22  61 W3        30.21R
OWENSBORO      CLEAR     35  22  58 NW7       30.21R WCI  29
HOPKINSVILLE   CLEAR     39  23  53 NW3       30.19R
BOWLING GREEN  CLEAR     38  23  55 CALM      30.20R
GLASGOW        CLEAR     34  24  65 CALM      30.18R
$$

KYZ024-025-028>034-038-045-046-053-200100-
NORTH CENTRAL KENTUCKY

CITY           SKY/WX    TMP DP  RH WIND       PRES   REMARKS
LOUISVILLE/SDF PTCLDY    35  24  64 W7        30.16R WCI  29
LOUISVILLE/LOU CLEAR     36  25  64 W6        30.16R WCI  31
FORT KNOX      CLEAR     33  23  66 W9        30.14R WCI  25
$$

KYZ035>037-039>044-047>052-055>060-089>105-200100-
NORTHEAST KENTUCKY

CITY           SKY/WX    TMP DP  RH WIND       PRES   REMARKS
LEXINGTON      CLEAR     33  25  72 SW5       30.13R WCI  29
COVINGTON      PTCLDY    32  25  75 W7        30.11R WCI  26
FRANKFORT      CLEAR     35  23  61 W3        30.13R
$$

KYZ054-064>069-076>088-106>120-200100-
SOUTHEAST KENTUCKY

CITY           SKY/WX    TMP DP  RH WIND       PRES   REMARKS
JACKSON        PTCLDY    34  24  67 VRB7      30.12R WCI  28
LONDON         MOCLDY    35  27  72 W7        30.15R WCI  29
SOMERSET       CLEAR     34  27  75 CALM      30.18R
MIDDLESBORO    CLOUDY    39  28  66 CALM      30.13R
MONTICELLO     CLEAR     32  28  85 NW5       30.19R WCI  27
$$




USA.gov is the U.S. government's official web portal to all federal, state and local government web resources and services.